^^
Station Historical Data
 
Daily Summary for January 16, 2019 Units:  English    Metric   Both
« Previous Day
Next Day »
Daily Weekly Monthly Yearly Custom
  Current: High: Low: Average:
Temperature: 45.3 °F TemperatureF °F 26.4 °F 34.8 °F
Dew Point: 35.8 °F DewpointF °F 17.4 °F 25.6 °F
Humidity: 69% Humidity% 46% 69%
Wind Speed: 0.0mph WindSpeedMPHmph 0.0mph 0.6mph
Wind Gust: 0.0mph WindSpeedGustMPHmph - -
WindCalm - - SW
Pressure: 30.69 in PressureIn in 30.66 in -
Precipitation: 0.00 in      
Historical Graphs
 
 
Tabular Data for January 16, 2019
Time Temperature Dew Point Pressure Wind Wind Speed Wind Gust Humidity Rainfall Rate (Hourly)
TemperatureF °F DewpointF °F PressureIn in Calm     Humidity% HourlyPrecipIn in
00:04 26.8 °F 18.0 °F 30.70 in Calm     69% 0.00 in
00:09 27.0 °F 17.8 °F 30.70 in Calm   1.0 mph 68% 0.00 in
00:14 27.0 °F 17.8 °F 30.70 in Calm     68% 0.00 in
00:19 27.0 °F 17.8 °F 30.70 in Calm   1.0 mph 68% 0.00 in
00:24 26.8 °F 17.6 °F 30.70 in Calm     68% 0.00 in
00:29 26.4 °F 17.6 °F 30.70 in Calm     69% 0.00 in
00:34 26.4 °F 17.6 °F 30.70 in Calm     69% 0.00 in
00:39 26.6 °F 17.4 °F 30.70 in Calm     68% 0.00 in
00:44 26.8 °F 17.6 °F 30.70 in Calm   1.0 mph 68% 0.00 in
00:49 27.0 °F 17.4 °F 30.70 in WNW 0.9 mph 2.0 mph 67% 0.00 in
00:54 27.1 °F 17.6 °F 30.70 in Calm     67% 0.00 in
00:59 27.3 °F 17.4 °F 30.70 in Calm     66% 0.00 in
01:04 27.3 °F 17.4 °F 30.70 in Calm   1.0 mph 66% 0.00 in
01:09 27.5 °F 17.6 °F 30.70 in Calm     66% 0.00 in
01:14 27.7 °F 17.8 °F 30.70 in Calm   1.0 mph 66% 0.00 in
01:19 27.7 °F 17.8 °F 30.70 in Calm     66% 0.00 in
01:24 27.9 °F 18.0 °F 30.70 in Calm     66% 0.00 in
01:29 27.9 °F 18.0 °F 30.71 in Calm     66% 0.00 in
01:34 28.0 °F 18.1 °F 30.71 in Calm     66% 0.00 in
01:39 28.0 °F 18.1 °F 30.71 in Calm     66% 0.00 in
01:44 28.0 °F 18.1 °F 30.71 in Calm     66% 0.00 in
01:49 28.2 °F 18.0 °F 30.71 in Calm     65% 0.00 in
01:54 28.2 °F 18.0 °F 30.71 in Calm     65% 0.00 in
01:59 28.2 °F 18.0 °F 30.71 in Calm     65% 0.00 in
02:04 28.2 °F 18.0 °F 30.71 in Calm     65% 0.00 in
02:09 28.4 °F 18.1 °F 30.71 in Calm   1.0 mph 65% 0.00 in
02:14 28.6 °F 18.3 °F 30.71 in Calm     65% 0.00 in
02:19 28.6 °F 18.3 °F 30.71 in Calm   1.0 mph 65% 0.00 in
02:24 28.6 °F 18.3 °F 30.71 in Calm   1.0 mph 65% 0.00 in
02:29 28.4 °F 18.5 °F 30.72 in West 0.9 mph 2.0 mph 66% 0.00 in
02:34 28.4 °F 18.5 °F 30.72 in Calm   1.0 mph 66% 0.00 in
02:39 28.6 °F 18.7 °F 30.72 in Calm   1.0 mph 66% 0.00 in
02:44 28.6 °F 19.0 °F 30.72 in WSW 0.9 mph 1.0 mph 67% 0.00 in
02:49 28.4 °F 18.9 °F 30.72 in Calm   3.0 mph 67% 0.00 in
02:54 28.4 °F 18.9 °F 30.73 in Calm   1.0 mph 67% 0.00 in
02:59 28.4 °F 18.9 °F 30.73 in Calm   1.0 mph 67% 0.00 in
03:04 28.4 °F 18.9 °F 30.73 in WNW 0.9 mph 1.0 mph 67% 0.00 in
03:09 28.4 °F 18.9 °F 30.73 in Calm   1.0 mph 67% 0.00 in
03:14 28.6 °F 19.0 °F 30.73 in Calm   1.0 mph 67% 0.00 in
03:19 28.6 °F 19.0 °F 30.73 in Calm     67% 0.00 in
03:24 28.8 °F 19.2 °F 30.73 in Calm   1.0 mph 67% 0.00 in
03:29 28.8 °F 19.2 °F 30.73 in Calm   1.0 mph 67% 0.00 in
03:34 28.8 °F 19.2 °F 30.73 in Calm     67% 0.00 in
03:39 28.8 °F 19.2 °F 30.73 in ENE 0.9 mph 1.0 mph 67% 0.00 in
03:44 28.8 °F 19.2 °F 30.73 in Calm   1.0 mph 67% 0.00 in
03:49 28.8 °F 19.2 °F 30.73 in Calm     67% 0.00 in
03:54 28.8 °F 19.2 °F 30.73 in Calm     67% 0.00 in
03:59 28.9 °F 19.4 °F 30.73 in Calm   1.0 mph 67% 0.00 in
04:04 28.8 °F 19.6 °F 30.73 in Calm     68% 0.00 in
04:09 28.8 °F 19.6 °F 30.73 in Calm   2.0 mph 68% 0.00 in
04:14 28.6 °F 19.4 °F 30.73 in Calm   2.0 mph 68% 0.00 in
04:19 28.6 °F 19.4 °F 30.72 in Calm   1.0 mph 68% 0.00 in
04:24 28.8 °F 19.6 °F 30.72 in Calm   1.0 mph 68% 0.00 in
04:29 28.8 °F 19.6 °F 30.72 in Calm   1.0 mph 68% 0.00 in
04:34 28.8 °F 19.6 °F 30.73 in Calm     68% 0.00 in
04:39 28.8 °F 19.6 °F 30.73 in Calm   1.0 mph 68% 0.00 in
04:44 28.8 °F 19.6 °F 30.72 in Calm   1.0 mph 68% 0.00 in
04:49 28.8 °F 19.6 °F 30.72 in Calm   1.0 mph 68% 0.00 in
04:54 28.8 °F 19.6 °F 30.72 in Calm   1.0 mph 68% 0.00 in
04:59 28.8 °F 19.6 °F 30.72 in Calm   1.0 mph 68% 0.00 in
05:04 28.8 °F 19.6 °F 30.72 in Calm   1.0 mph 68% 0.00 in
05:09 28.8 °F 19.6 °F 30.72 in Calm   1.0 mph 68% 0.00 in
05:14 28.8 °F 19.9 °F 30.72 in Calm   1.0 mph 69% 0.00 in
05:19 28.6 °F 20.1 °F 30.72 in Calm   2.0 mph 70% 0.00 in
05:24 28.6 °F 20.1 °F 30.72 in NE 0.9 mph 1.0 mph 70% 0.00 in
05:29 28.6 °F 20.1 °F 30.72 in Calm     70% 0.00 in
05:34 28.6 °F 20.3 °F 30.72 in ESE 0.9 mph 1.0 mph 71% 0.00 in
05:39 28.6 °F 20.1 °F 30.73 in Calm     70% 0.00 in
05:44 28.6 °F 20.1 °F 30.73 in Calm     70% 0.00 in
05:49 28.6 °F 20.1 °F 30.73 in Calm     70% 0.00 in
05:54 28.6 °F 20.3 °F 30.73 in Calm   1.0 mph 71% 0.00 in
05:59 28.6 °F 20.3 °F 30.73 in Calm   1.0 mph 71% 0.00 in
06:04 28.4 °F 20.5 °F 30.73 in Calm     72% 0.00 in
06:09 28.6 °F 20.7 °F 30.73 in WNW 2.0 mph 2.0 mph 72% 0.00 in
06:14 28.4 °F 20.5 °F 30.73 in Calm     72% 0.00 in
06:19 28.4 °F 20.5 °F 30.73 in Calm   1.0 mph 72% 0.00 in
06:24 28.4 °F 20.5 °F 30.73 in SW 0.9 mph 2.0 mph 72% 0.00 in
06:29 28.2 °F 20.7 °F 30.73 in Calm   1.0 mph 73% 0.00 in
06:34 28.2 °F 20.3 °F 30.74 in West 0.9 mph 1.0 mph 72% 0.00 in
06:39 28.2 °F 20.7 °F 30.74 in Calm   1.0 mph 73% 0.00 in
06:44 28.2 °F 20.7 °F 30.74 in Calm     73% 0.00 in
06:49 28.2 °F 20.7 °F 30.74 in Calm     73% 0.00 in
06:54 28.2 °F 20.7 °F 30.74 in Calm   1.0 mph 73% 0.00 in
06:59 28.0 °F 20.5 °F 30.75 in Calm     73% 0.00 in
07:04 28.0 °F 20.5 °F 30.74 in Calm   1.0 mph 73% 0.00 in
07:09 28.0 °F 20.5 °F 30.74 in Calm   1.0 mph 73% 0.00 in
07:14 28.0 °F 20.5 °F 30.75 in Calm   1.0 mph 73% 0.00 in
07:19 28.0 °F 20.5 °F 30.75 in WNW 0.9 mph 2.0 mph 73% 0.00 in
07:24 28.0 °F 20.5 °F 30.75 in Calm   1.0 mph 73% 0.00 in
07:29 28.0 °F 20.5 °F 30.75 in Calm   1.0 mph 73% 0.00 in
07:34 28.0 °F 20.5 °F 30.75 in Calm     73% 0.00 in
07:39 28.0 °F 20.8 °F 30.75 in Calm     74% 0.00 in
07:44 28.0 °F 20.8 °F 30.76 in Calm     74% 0.00 in
07:49 28.0 °F 20.8 °F 30.76 in Calm     74% 0.00 in
07:54 28.0 °F 20.8 °F 30.76 in Calm     74% 0.00 in
07:59 28.0 °F 21.2 °F 30.76 in Calm   1.0 mph 75% 0.00 in
08:04 28.2 °F 21.4 °F 30.75 in NW 0.9 mph 2.0 mph 75% 0.00 in
08:09 28.0 °F 21.2 °F 30.75 in Calm   1.0 mph 75% 0.00 in
08:14 28.0 °F 21.4 °F 30.75 in Calm   1.0 mph 76% 0.00 in
08:19 28.0 °F 21.4 °F 30.75 in Calm   2.0 mph 76% 0.00 in
08:24 28.0 °F 21.4 °F 30.75 in Calm   1.0 mph 76% 0.00 in
08:29 28.0 °F 21.4 °F 30.75 in Calm   1.0 mph 76% 0.00 in
08:34 28.0 °F 21.4 °F 30.75 in Calm   2.0 mph 76% 0.00 in
08:39 28.0 °F 21.4 °F 30.76 in Calm   1.0 mph 76% 0.00 in
08:44 28.2 °F 21.6 °F 30.76 in Calm   1.0 mph 76% 0.00 in
08:49 28.2 °F 21.9 °F 30.76 in Calm   1.0 mph 77% 0.00 in
08:54 28.2 °F 21.9 °F 30.76 in ESE 0.9 mph 1.0 mph 77% 0.00 in
08:59 28.2 °F 21.9 °F 30.76 in Calm     77% 0.00 in
09:04 28.6 °F 22.3 °F 30.76 in Calm   1.0 mph 77% 0.00 in
09:09 28.6 °F 22.6 °F 30.77 in Calm   1.0 mph 78% 0.00 in
09:14 28.6 °F 22.6 °F 30.76 in ESE 0.9 mph 2.0 mph 78% 0.00 in
09:19 28.6 °F 22.8 °F 30.77 in Calm   1.0 mph 79% 0.00 in
09:24 28.6 °F 22.6 °F 30.76 in SE 0.9 mph 1.0 mph 78% 0.00 in
09:29 28.8 °F 22.8 °F 30.77 in Calm   1.0 mph 78% 0.00 in
09:34 28.8 °F 23.0 °F 30.77 in Calm   1.0 mph 79% 0.00 in
09:39 28.9 °F 23.2 °F 30.77 in Calm     79% 0.00 in
09:44 29.1 °F 23.7 °F 30.77 in Calm     80% 0.00 in
09:49 29.3 °F 23.9 °F 30.78 in Calm   1.0 mph 80% 0.00 in
09:54 29.3 °F 23.9 °F 30.78 in Calm   2.0 mph 80% 0.00 in
09:59 29.3 °F 24.3 °F 30.78 in West 0.9 mph 2.0 mph 81% 0.00 in
10:04 29.5 °F 24.4 °F 30.78 in Calm     81% 0.00 in
10:09 29.7 °F 24.6 °F 30.78 in Calm   1.0 mph 81% 0.00 in
10:14 29.8 °F 25.0 °F 30.79 in Calm   1.0 mph 82% 0.00 in
10:19 29.8 °F 25.3 °F 30.79 in Calm   1.0 mph 83% 0.00 in
10:24 30.0 °F 25.5 °F 30.79 in Calm     83% 0.00 in
10:29 30.2 °F 25.7 °F 30.79 in Calm   1.0 mph 83% 0.00 in
10:34 30.4 °F 25.9 °F 30.78 in Calm   1.0 mph 83% 0.00 in
10:39 30.7 °F 26.2 °F 30.79 in Calm     83% 0.00 in
10:44 30.7 °F 26.4 °F 30.79 in WNW 2.0 mph 2.0 mph 84% 0.00 in
10:49 30.7 °F 26.4 °F 30.79 in East 2.0 mph 2.0 mph 84% 0.00 in
10:54 31.3 °F 27.0 °F 30.78 in ESE 0.9 mph 3.0 mph 84% 0.00 in
10:59 31.5 °F 27.1 °F 30.78 in East 0.9 mph 2.0 mph 84% 0.00 in
11:04 31.6 °F 27.7 °F 30.78 in ESE 0.9 mph 3.0 mph 85% 0.00 in
11:09 32.2 °F 28.2 °F 30.78 in Calm   2.0 mph 85% 0.00 in
11:14 32.7 °F 28.4 °F 30.78 in ENE 0.9 mph 3.0 mph 84% 0.00 in
11:19 33.4 °F 29.5 °F 30.77 in ESE 0.9 mph 2.0 mph 85% 0.00 in
11:24 34.0 °F 30.0 °F 30.77 in Calm   2.0 mph 85% 0.00 in
11:29 34.7 °F 30.7 °F 30.77 in SSW 2.0 mph 2.0 mph 85% 0.00 in
11:34 35.8 °F 31.5 °F 30.77 in WNW 0.9 mph 1.0 mph 84% 0.00 in
11:39 35.8 °F 31.1 °F 30.77 in Calm   3.0 mph 83% 0.00 in
11:44 35.6 °F 30.9 °F 30.76 in West 2.9 mph 4.0 mph 83% 0.00 in
11:49 36.1 °F 31.8 °F 30.76 in West 2.0 mph 4.0 mph 84% 0.00 in
11:54 36.3 °F 31.6 °F 30.76 in West 0.9 mph 3.0 mph 83% 0.00 in
11:59 37.0 °F 32.4 °F 30.75 in SSE 2.9 mph 4.0 mph 83% 0.00 in
12:04 37.2 °F 32.2 °F 30.75 in Calm   2.0 mph 82% 0.00 in
12:09 38.3 °F 32.9 °F 30.74 in West 2.9 mph 3.0 mph 81% 0.00 in
12:14 38.5 °F 32.9 °F 30.74 in WSW 0.9 mph 3.0 mph 80% 0.00 in
12:19 38.7 °F 33.1 °F 30.74 in West 0.9 mph 1.0 mph 80% 0.00 in
12:24 38.8 °F 33.3 °F 30.74 in Calm   3.0 mph 80% 0.00 in
12:29 39.6 °F 33.6 °F 30.73 in ESE 0.9 mph 2.0 mph 79% 0.00 in
12:34 40.3 °F 34.0 °F 30.73 in ESE 2.9 mph 3.0 mph 78% 0.00 in
12:39 40.6 °F 34.3 °F 30.73 in SW 0.9 mph 2.0 mph 78% 0.00 in
12:44 40.8 °F 33.8 °F 30.72 in WSW 4.0 mph 4.0 mph 76% 0.00 in
12:49 41.4 °F 34.3 °F 30.72 in West 2.0 mph 3.0 mph 76% 0.00 in
12:54 41.7 °F 34.3 °F 30.72 in West 4.0 mph 4.0 mph 75% 0.00 in
12:59 41.7 °F 34.7 °F 30.71 in WNW 2.9 mph 4.0 mph 76% 0.00 in
13:04 42.3 °F 34.9 °F 30.71 in West 0.9 mph 2.0 mph 75% 0.00 in
13:09 43.0 °F 35.6 °F 30.71 in SSW 0.9 mph 2.0 mph 75% 0.00 in
13:14 43.3 °F 34.9 °F 30.71 in West 2.0 mph 5.0 mph 72% 0.00 in
13:19 43.9 °F 35.4 °F 30.71 in Calm   1.0 mph 72% 0.00 in
13:24 44.6 °F 35.4 °F 30.70 in Calm   1.0 mph 70% 0.00 in
13:29 45.0 °F 35.8 °F 30.70 in Calm   1.0 mph 70% 0.00 in
13:34 45.9 °F 36.0 °F 30.70 in SE 0.9 mph 4.0 mph 68% 0.00 in
13:39 46.0 °F 35.8 °F 30.69 in East 0.9 mph 2.0 mph 67% 0.00 in
13:44 46.8 °F 36.3 °F 30.69 in WSW 0.9 mph 2.0 mph 67% 0.00 in
13:49 46.9 °F 35.8 °F 30.69 in SSE 0.9 mph 2.0 mph 65% 0.00 in
13:54 47.1 °F 36.7 °F 30.68 in WSW 2.0 mph 4.0 mph 67% 0.00 in
13:59 47.7 °F 37.2 °F 30.68 in Calm   5.0 mph 67% 0.00 in
14:04 48.4 °F 37.2 °F 30.68 in Calm   3.0 mph 65% 0.00 in
14:09 49.5 °F 37.0 °F 30.68 in WNW 0.9 mph 4.0 mph 62% 0.00 in
14:14 49.8 °F 36.9 °F 30.67 in NW 2.0 mph 3.0 mph 61% 0.00 in
14:19 49.8 °F 36.5 °F 30.67 in Calm   3.0 mph 60% 0.00 in
14:24 50.0 °F 36.7 °F 30.67 in West 2.9 mph 3.0 mph 60% 0.00 in
14:29 50.5 °F 37.2 °F 30.66 in WSW 2.0 mph 4.0 mph 60% 0.00 in
14:34 50.7 °F 36.5 °F 30.67 in WNW 2.9 mph 4.0 mph 58% 0.00 in
14:39 51.6 °F 37.8 °F 30.66 in Calm     59% 0.00 in
14:44 52.3 °F 37.0 °F 30.66 in SE 0.9 mph 2.0 mph 56% 0.00 in
14:49 52.5 °F 36.9 °F 30.66 in SW 2.0 mph 4.0 mph 55% 0.00 in
14:54 52.3 °F 35.8 °F 30.66 in West 2.9 mph 5.0 mph 53% 0.00 in
14:59 52.7 °F 35.1 °F 30.66 in WSW 2.9 mph 4.0 mph 51% 0.00 in
15:04 52.9 °F 34.7 °F 30.66 in WNW 4.0 mph 6.0 mph 50% 0.00 in
15:09 53.1 °F 36.0 °F 30.66 in WNW 4.0 mph 7.0 mph 52% 0.00 in
15:14 53.1 °F 34.9 °F 30.66 in Calm   3.0 mph 50% 0.00 in
15:19 54.0 °F 34.2 °F 30.66 in West 4.0 mph 6.0 mph 47% 0.00 in
15:24 53.8 °F 35.1 °F 30.66 in WSW 2.0 mph 3.0 mph 49% 0.00 in
15:29 54.0 °F 34.2 °F 30.66 in Calm   5.0 mph 47% 0.00 in
15:34 54.9 °F 34.5 °F 30.66 in WSW 0.9 mph 4.0 mph 46% 0.00 in
15:39 54.9 °F 36.1 °F 30.66 in WSW 0.9 mph 3.0 mph 49% 0.00 in
15:44 55.2 °F 36.0 °F 30.66 in South 0.9 mph 2.0 mph 48% 0.00 in
15:49 54.7 °F 35.4 °F 30.67 in West 2.0 mph 5.0 mph 48% 0.00 in
15:54 54.1 °F 35.4 °F 30.67 in West 4.0 mph 5.0 mph 49% 0.00 in
15:59 53.6 °F 35.4 °F 30.67 in WSW 2.0 mph 4.0 mph 50% 0.00 in
16:04 53.2 °F 34.5 °F 30.67 in West 4.0 mph 4.0 mph 49% 0.00 in
16:09 52.7 °F 35.1 °F 30.67 in WSW 0.9 mph 3.0 mph 51% 0.00 in
16:15 52.3 °F 35.2 °F 30.67 in WSW 2.0 mph 3.0 mph 52% 0.00 in
16:19 51.6 °F 34.5 °F 30.68 in West 2.9 mph 3.0 mph 52% 0.00 in
16:24 51.1 °F 34.5 °F 30.68 in West 2.0 mph 6.0 mph 53% 0.00 in
16:29 50.7 °F 34.7 °F 30.68 in Calm   4.0 mph 54% 0.00 in
16:34 50.5 °F 35.1 °F 30.68 in SE 0.9 mph 2.0 mph 55% 0.00 in
16:39 50.2 °F 35.1 °F 30.68 in Calm   2.0 mph 56% 0.00 in
16:44 49.8 °F 35.2 °F 30.68 in ENE 0.9 mph 2.0 mph 57% 0.00 in
16:49 49.5 °F 34.3 °F 30.68 in Calm   3.0 mph 56% 0.00 in
16:54 49.3 °F 34.7 °F 30.68 in Calm   2.0 mph 57% 0.00 in
16:59 48.9 °F 35.2 °F 30.68 in West 0.9 mph 2.0 mph 59% 0.00 in
17:04 48.4 °F 36.3 °F 30.68 in Calm   1.0 mph 63% 0.00 in
17:09 47.5 °F 34.3 °F 30.68 in Calm   1.0 mph 60% 0.00 in
17:14 46.8 °F 36.3 °F 30.68 in Calm   1.0 mph 67% 0.00 in
17:19 46.2 °F 36.0 °F 30.68 in Calm   1.0 mph 67% 0.00 in
17:24 45.7 °F 35.4 °F 30.69 in Calm     67% 0.00 in
17:29 45.3 °F 35.1 °F 30.69 in ESE 1.0 mph 1.0 mph 67% 0.00 in
17:34 45.3 °F 35.8 °F 30.69 in Calm     69% 0.00 in
WheeWeather.com
Compliments of Weather Underground - 2.25 mb